Location: Laterina
(43.5167°N, 11.7167°E)
Time: 14:08:35
(UTC+00:00)

Cosmos 2026 Rocket - Pass Details

Date: 26 January 2021
Orbit: 940 x 1000 km, 82.9° (Epoch: 28 February)

Event Time Altitude Azimuth Distance (km) Brightness Sun altitude
Rises 04:52:53 0° 352° (N) 3,718 6.9 -18.6°
Reaches altitude 10° 04:55:24 10° 353° (N) 2,770 6.2 -18.1°
Maximum altitude 05:01:48 87° 83° (E) 1,007 4.1 -17.0°
Drops below altitude 10° 05:08:11 10° 173° (S) 2,761 6.6 -15.8°
Sets 05:10:42 0° 174° (S) 3,705 7.3 -15.4°
